n   0.12256426     Peri.  175.88054     -0.25953769     +0.92710466

a   4.0138409      Node    78.91486     -0.89373013     -0.12449245

e   0.2833111      Incl.   15.99436     -0.36590523     -0.35352310

P   8.04 (+/- 4.08 day)

From 73 observations 2004 Mar. 15-Mar. 31.

 

Date/        TT  R.A.(2000) Decl.     Delta   r     Daily motion  Mag.  Moon Age

              h    h  m       。  ,                      ,  / PA 。  m1      。

2004 Apr.  1 16  13 40.80  +11 29.0   2.270  3.221    10.4 / 289  16.4   55  .83

           2 16  13 40.13  +11 32.3   2.266  3.219    10.5 / 288  16.4   43  .90

           3 16  13 39.45  +11 35.5   2.262  3.217    10.6 / 287  16.3   32  .96

           4 16  13 38.76  +11 38.6   2.259  3.215    10.6 / 286  16.3   22  .99

           5 16  13 38.07  +11 41.5   2.256  3.212    10.7 / 285  16.3   18 1.00

           6 16  13 37.37  +11 44.4   2.253  3.210    10.7 / 285  16.3   25  .98

           7 16  13 36.66  +11 47.0   2.250  3.208    10.8 / 284  16.3   36  .93

           8 16  13 35.95  +11 49.6   2.248  3.206    10.8 / 283  16.3   49  .86

           9 16  13 35.23  +11 52.0   2.246  3.204    10.9 / 282  16.3   63  .77

          10 16  13 34.50  +11 54.3   2.244  3.202    10.9 / 281  16.3   77  .67

          11 16  13 33.78  +11 56.4   2.242  3.200    10.9 / 280  16.3   90  .56

          12 16  13 33.05  +11 58.3   2.241  3.197    10.9 / 279  16.3  104  .44

          13 16  13 32.32  +12 00.1   2.240  3.195    10.9 / 279  16.3  117  .33

          14 16  13 31.58  +12 01.7   2.239  3.193    10.9 / 278  16.3  130  .24

          15 16  13 30.85  +12 03.2   2.239  3.191    10.8 / 277  16.3  142  .15

          16 16  13 30.12  +12 04.5   2.239  3.189    10.8 / 276  16.3  153  .08

          17 16  13 29.38  +12 05.6   2.239  3.187    10.8 / 275  16.3  161  .04

          18 16  13 28.65  +12 06.5   2.239  3.185    10.7 / 274  16.3  162  .01

          19 16  13 27.93  +12 07.3   2.240  3.183    10.6 / 273  16.3  156  .00

          20 16  13 27.20  +12 07.8   2.241  3.181    10.6 / 272  16.3  146  .01

          21 16  13 26.48  +12 08.2   2.242  3.178    10.5 / 271  16.3  135  .04

          22 16  13 25.77  +12 08.4   2.243  3.176    10.4 / 270  16.3  124  .09

          23 16  13 25.06  +12 08.4   2.245  3.174    10.3 / 269  16.3  113  .15

          24 16  13 24.35  +12 08.3   2.247  3.172    10.2 / 268  16.3  102  .22

          25 16  13 23.66  +12 07.9   2.249  3.170    10.1 / 267  16.3   90  .31

          26 16  13 22.97  +12 07.3   2.251  3.168    10.0 / 266  16.3   79  .40

          27 16  13 22.29  +12 06.6   2.254  3.166     9.9 / 265  16.3   67  .49

          28 16  13 21.62  +12 05.6   2.257  3.164     9.8 / 263  16.3   55  .59

          29 16  13 20.96  +12 04.5   2.260  3.162     9.6 / 262  16.3   43  .69

          30 16  13 20.30  +12 03.2   2.263  3.160     9.5 / 261  16.3   31  .78

     May   1 16  13 19.66  +12 01.7   2.267  3.158     9.4 / 260  16.3   21  .87

NAKANO

         **** Don't distribute anyone except personal use only ****

                (C) Copyright 2004 OAA/ComputingSection

write mail from CFAD0::NAKANO on 2004-04-01 05:41:30(JST).

 



戻ります。